TECHEDSAT 10 (45917 NORAD) Tracking and Keplerian Element Data

This shows tracking and keplerian element data for the satellite.

Feedback or suggestion? Click here.




ElementValue
Catalog45917
NameTECHEDSAT 10
Epoch Orbit2197
Epoch Day336.87571948
Epoch Year2020
RAAN233.6189
Inclination51.6376
Eccentricity0.000529
Argument of Perigee187.7879
Mean Anonmoly172.3033
Mean Motion15.61153347
Decay Rate0.00109664
L11 45917U 98067RQ 20336.87571948 .00109664 00000-0 12610-2 0 9997
L22 45917 51.6376 233.6189 0005290 187.7879 172.3033 15.61153347 21975

Live tracking and technical data element details for TECHEDSAT 10 (NORAD 45917). TECHEDSAT 10 can be tracked NOW for your location showing map with azimuth and elevation plus other details from your city location.

Track the satellite on the map from your city or location and see movement details for azimuth, elevation, latitude, longitude, range, height, and movement on the map or in text.







IsCatalogInMostPopularTable: catalog: 45917, numindb: 35
Update: records affected: 1



GetName: 45917 TECHEDSAT 10

Hit Count: updated at: Wed, 02 Dec 2020 18:25:38 GMT